Location: Mactaquac Provincial Park
(45.9573°N, 66.8897°W)
Time: 04:26:13
(UTC-03:00)

CENTAUR R/B - Visible Passes

Search period start: 19 August 2017 00:00
Search period end: 29 August 2017 00:00
Orbit: 824 x 1365 km, 63.5° (Epoch: 17 August)

Date Brightness Start Highest point End Pass type
(mag) Time Alt. Az. Time Alt. Az. Time Alt. Az.
19 Aug 3.4 00:07:05 10° NW 00:14:42 58° NE 00:17:29 41° E visible
19 Aug 3.6 01:58:01 10° NW 02:04:37 43° WSW 02:04:37 43° WSW visible
19 Aug 4.8 21:27:51 10° NW 21:33:17 22° NNE 21:39:08 10° ENE visible
19 Aug 3.8 23:18:53 10° NNW 23:26:07 43° NE 23:30:19 26° E visible
20 Aug 3.1 01:09:33 10° NW 01:17:21 66° WSW 01:17:28 66° SW visible
20 Aug 4.9 03:02:34 10° WNW 03:04:37 14° W 03:04:37 14° W visible
20 Aug 4.2 22:30:40 10° NNW 22:37:21 33° NNE 22:43:14 15° E visible
21 Aug 3.0 00:21:15 10° NW 00:29:06 87° NE 00:30:23 68° SE visible
21 Aug 4.4 02:12:55 10° WNW 02:17:31 24° W 02:17:31 24° W visible
21 Aug 4.5 21:42:21 10° NNW 21:48:27 26° NNE 21:55:03 10° ENE visible
21 Aug 3.3 23:33:01 10° NW 23:40:42 63° NE 23:43:21 44° ESE visible
22 Aug 3.8 01:24:03 10° NW 01:30:30 39° WSW 01:30:30 39° WSW visible
22 Aug 4.7 20:53:53 10° NW 20:59:26 22° NNE 21:05:24 10° ENE visible
22 Aug 3.7 22:44:49 10° NNW 22:52:09 46° NE 22:56:22 27° E visible
23 Aug 3.2 00:35:32 10° NW 00:43:16 60° WSW 00:43:31 60° SW visible
23 Aug 5.0 02:29:07 10° WNW 02:30:40 12° W 02:30:40 12° W visible
23 Aug 4.1 21:56:37 10° NNW 22:03:26 35° NNE 22:09:25 15° E visible
23 Aug 3.0 23:47:11 10° NW 23:55:04 86° SW 23:56:34 64° SSE visible
24 Aug 4.5 01:39:06 10° WNW 01:43:45 22° W 01:43:45 22° W visible
24 Aug 4.4 21:08:19 10° NNW 21:14:34 28° NNE 21:21:19 10° E visible
24 Aug 3.2 22:58:57 10° NW 23:06:42 68° NE 23:09:42 43° ESE visible
25 Aug 3.9 00:50:06 10° NW 00:56:51 36° WSW 00:56:51 36° WSW visible
25 Aug 3.6 22:10:45 10° NNW 22:18:11 49° NE 22:22:51 25° ESE visible
26 Aug 3.3 00:01:31 10° NW 00:09:11 55° WSW 00:10:01 53° SW visible
26 Aug 5.1 01:55:59 10° W 01:57:11 11° W 01:57:11 11° W visible
26 Aug 3.9 21:22:33 10° NNW 21:29:30 37° NE 21:36:03 14° E visible
26 Aug 3.1 23:13:09 10° NW 23:21:01 80° SW 23:23:13 54° SSE visible
27 Aug 4.6 01:05:19 10° WNW 01:10:24 21° WSW 01:10:24 21° WSW visible
27 Aug 4.2 20:34:17 10° NNW 20:40:40 29° NNE 20:47:35 10° E visible
27 Aug 3.1 22:24:53 10° NW 22:32:41 74° NE 22:36:28 36° SE visible
28 Aug 4.1 00:16:11 10° NW 00:23:04 33° WSW 00:23:39 32° WSW visible
28 Aug 3.4 21:36:41 10° NW 21:44:12 53° NE 21:49:46 21° ESE visible
28 Aug 3.6 23:27:31 10° NW 23:35:06 50° WSW 23:36:57 43° SSW visible
